Вернуться в каталог

FENGYUN 1C DEB

LostPO
NORAD 38489·DEBRIS·🇨🇳 China

Запущен May 10, 1999 с Taiyuan Satellite Launch Center

Loading…

Ближайшие Пролёты (ближайшие 24 часа)

TLE

УстаревшееSource: Space-Track

Эпоха: Oct 29, 2025, 10:12 UTC

1 38489U 99025ERY 25302.42540288  .00003626  00000-0  24792-2 0  9995
2 38489  98.2029 170.6194 0209999 172.4826 187.9569 13.90151974613904

Отслеживайте FENGYUN 1C DEB в реальном времени с AllMySat

Download on the App Store